HEBOWX Weather Reports


Display with metric or nautical units.
time (UTC)temp
F
wind
direction
speed
MPH
gust
MPH
rain 1hr
in
rain 24hr
in
rain mn
in
humidity
%
barometer
mb
20181016010826 61 148 10.0 15.0 0.00 0.00 0.00 35 1025.7
20181016010326 61 161 10.0 15.0 0.00 0.00 0.00 35 1025.6
20181016005826 62 161 10.0 15.0 0.00 0.00 0.00 2 1025.7
20181016005327 62 147 12.0 14.0 0.00 0.00 0.00 1 1025.7
20181016004826 62 156 11.0 18.0 0.00 0.00 0.00 36 1025.6
20181016004326 62 151 10.0 18.0 0.00 0.00 0.00 1 1025.7
20181016003826 62 148 12.0 18.0 0.00 0.00 0.00 1 1025.7
20181016003326 62 165 14.0 18.0 0.00 0.00 0.00 36 1025.6
20181016002826 62 169 14.0 18.0 0.00 0.00 0.00 1 1025.7
20181016002326 62 137 13.0 18.0 0.00 0.00 0.00 35 1025.6
20181016001826 62 169 13.0 17.0 0.00 0.00 0.00 35 1025.6
20181016001328 62 163 13.0 18.0 0.00 0.00 0.00 34 1025.7
20181016000826 62 170 11.0 18.0 0.00 0.00 0.00 34 1025.7
20181016000326 62 148 12.0 18.0 0.00 0.00 0.00 34 1025.7
20181015235826 63 151 13.0 18.0 0.00 0.00 0.00 34 1025.7
20181015235326 63 159 14.0 18.0 0.00 0.00 0.00 34 1025.7
20181015234826 63 162 12.0 18.0 0.00 0.00 0.00 34 1025.9
20181015234326 63 135 11.0 18.0 0.00 0.00 0.00 33 1025.9
20181015233826 63 147 14.0 18.0 0.00 0.00 0.00 33 1025.9
20181015233326 63 138 13.0 19.0 0.00 0.00 0.00 32 1026.0
20181015232826 63 175 13.0 19.0 0.00 0.00 0.00 31 1026.0
20181015232326 63 162 12.0 19.0 0.00 0.00 0.00 32 1026.1
20181015231826 63 155 13.0 17.0 0.00 0.00 0.00 31 1026.0
20181015231328 63 148 12.0 17.0 0.00 0.00 0.00 31 1026.1
20181015230826 63 135 11.0 19.0 0.00 0.00 0.00 30 1026.1
20181015230327 63 148 11.0 19.0 0.00 0.00 0.00 29 1026.1
20181015225826 63 149 11.0 19.0 0.00 0.00 0.00 29 1026.2
20181015225326 63 134 15.0 16.0 0.00 0.00 0.00 29 1026.3
20181015224826 63 141 10.0 16.0 0.00 0.00 0.00 29 1026.3
20181015224326 63 173 11.0 16.0 0.00 0.00 0.00 28 1026.3
20181015223825 63 161 8.0 16.0 0.00 0.00 0.00 28 1026.3
20181015223327 64 144 11.0 16.0 0.00 0.00 0.00 26 1026.3
20181015222826 64 162 10.0 18.0 0.00 0.00 0.00 29 1026.4
20181015222326 64 140 12.0 18.0 0.00 0.00 0.00 30 1026.4
20181015221826 64 144 11.0 18.0 0.00 0.00 0.00 31 1026.4
20181015221327 64 137 11.0 16.0 0.00 0.00 0.00 32 1026.4
20181015220826 64 161 12.0 16.0 0.00 0.00 0.00 32 1026.4
20181015220326 64 137 11.0 15.0 0.00 0.00 0.00 29 1026.5
20181015215826 64 169 9.0 15.0 0.00 0.00 0.00 32 1026.4
20181015215325 64 135 11.0 15.0 0.00 0.00 0.00 32 1026.5
20181015214825 64 161 9.0 15.0 0.00 0.00 0.00 32 1026.5
20181015214325 64 166 7.0 14.0 0.00 0.00 0.00 32 1026.5
20181015213826 64 145 9.0 18.0 0.00 0.00 0.00 33 1026.5
20181015213326 64 124 10.0 18.0 0.00 0.00 0.00 33 1026.5
20181015212825 64 127 7.0 18.0 0.00 0.00 0.00 33 1026.5
20181015212325 64 135 4.0 15.0 0.00 0.00 0.00 32 1026.5
20181015211825 64 151 11.0 16.0 0.00 0.00 0.00 32 1026.5
20181015211325 64 147 8.0 16.0 0.00 0.00 0.00 33 1026.6
20181015210826 64 141 4.0 16.0 0.00 0.00 0.00 31 1026.6
20181015210325 64 128 9.0 15.0 0.00 0.00 0.00 29 1026.6
20181015205825 64 165 7.0 18.0 0.00 0.00 0.00 31 1026.6
20181015205326 64 144 10.0 18.0 0.00 0.00 0.00 31 1026.6
20181015204825 64 182 9.0 18.0 0.00 0.00 0.00 30 1026.5
20181015204326 63 133 10.0 15.0 0.00 0.00 0.00 28 1026.6
20181015203825 64 172 11.0 14.0 0.00 0.00 0.00 29 1026.5
20181015203325 64 130 10.0 17.0 0.00 0.00 0.00 28 1026.6
20181015202825 63 141 10.0 17.0 0.00 0.00 0.00 27 1026.6
20181015202326 63 161 10.0 17.0 0.00 0.00 0.00 26 1026.6
20181015201825 63 119 12.0 17.0 0.00 0.00 0.00 27 1026.6
20181015201325 63 154 13.0 17.0 0.00 0.00 0.00 27 1026.8
20181015200825 63 151 12.0 17.0 0.00 0.00 0.00 27 1026.8
20181015200325 63 158 13.0 19.0 0.00 0.00 0.00 26 1026.8
20181015195826 62 149 15.0 19.0 0.00 0.00 0.00 26 1026.9
20181015195325 63 158 13.0 19.0 0.00 0.00 0.00 25 1026.8
20181015194826 62 156 13.0 24.0 0.00 0.00 0.00 26 1026.9
20181015194326 62 147 15.0 24.0 0.00 0.00 0.00 24 1026.9
20181015193825 62 147 13.0 24.0 0.00 0.00 0.00 23 1026.9
20181015193325 62 140 18.0 23.0 0.00 0.00 0.00 26 1026.9
20181015192825 62 159 15.0 23.0 0.00 0.00 0.00 27 1026.9
20181015192325 62 145 15.0 23.0 0.00 0.00 0.00 26 1026.9
20181015191825 62 144 11.0 23.0 0.00 0.00 0.00 25 1026.8
20181015191327 62 145 17.0 23.0 0.00 0.00 0.00 25 1026.9
20181015190826 62 154 15.0 22.0 0.00 0.00 0.00 26 1026.8
20181015190326 62 155 18.0 22.0 0.00 0.00 0.00 25 1026.8
20181015185825 62 133 16.0 22.0 0.00 0.00 0.00 25 1026.8
20181015185325 61 159 17.0 22.0 0.00 0.00 0.00 27 1026.8
20181015184826 61 163 16.0 22.0 0.00 0.00 0.00 25 1026.8
20181015184327 61 166 12.0 22.0 0.00 0.00 0.00 25 1026.8
20181015183825 61 162 11.0 20.0 0.00 0.00 0.00 25 1026.6
20181015183326 61 156 14.0 21.0 0.00 0.00 0.00 24 1026.6
20181015182825 61 172 16.0 21.0 0.00 0.00 0.00 26 1026.8
20181015182325 60 147 12.0 21.0 0.00 0.00 0.00 25 1026.8
20181015181825 60 158 14.0 20.0 0.00 0.00 0.00 26 1026.8
20181015181326 60 176 9.0 23.0 0.00 0.00 0.00 26 1026.8
20181015180825 60 155 11.0 23.0 0.00 0.00 0.00 26 1026.8
20181015180325 60 149 17.0 23.0 0.00 0.00 0.00 27 1026.8
20181015175826 59 162 14.0 23.0 0.00 0.00 0.00 27 1026.8
20181015175325 59 165 14.0 23.0 0.00 0.00 0.00 26 1026.8
20181015174826 59 156 15.0 23.0 0.00 0.00 0.00 23 1026.8
20181015174325 59 140 16.0 24.0 0.00 0.00 0.00 26 1026.8
20181015173825 59 151 14.0 24.0 0.00 0.00 0.00 26 1026.8
20181015173325 58 147 15.0 24.0 0.00 0.00 0.00 25 1026.8
20181015172825 58 152 14.0 24.0 0.00 0.00 0.00 26 1026.8
20181015172326 58 151 15.0 24.0 0.00 0.00 0.00 26 1026.6
20181015171825 58 145 18.0 24.0 0.00 0.00 0.00 26 1026.6
20181015171326 58 144 14.0 23.0 0.00 0.00 0.00 23 1026.8
20181015170827 58 113 12.0 28.0 0.00 0.00 0.00 26 1026.8
20181015170325 57 126 16.0 28.0 0.00 0.00 0.00 26 1026.8
20181015165825 57 145 17.0 28.0 0.00 0.00 0.00 26 1026.8
20181015165326 57 138 16.0 26.0 0.00 0.00 0.00 27 1026.6
20181015164825 57 155 17.0 26.0 0.00 0.00 0.00 26 1026.6
20181015164325 57 159 16.0 27.0 0.00 0.00 0.00 26 1026.8
20181015163827 57 161 18.0 27.0 0.00 0.00 0.00 27 1026.6
20181015163325 56 155 16.0 27.0 0.00 0.00 0.00 24 1026.5
20181015162825 56 127 16.0 27.0 0.00 0.00 0.00 26 1026.5
20181015162326 56 135 19.0 27.0 0.00 0.00 0.00 27 1026.4
20181015161825 56 154 18.0 27.0 0.00 0.00 0.00 27 1026.4
20181015161326 55 131 15.0 24.0 0.00 0.00 0.00 27 1026.3
20181015160825 55 128 18.0 28.0 0.00 0.00 0.00 28 1026.3
20181015160325 55 141 16.0 28.0 0.00 0.00 0.00 28 1026.3
20181015155826 55 161 19.0 28.0 0.00 0.00 0.00 28 1026.3
20181015155325 55 144 19.0 26.0 0.00 0.00 0.00 28 1026.3
20181015154825 55 175 17.0 30.0 0.00 0.00 0.00 28 1026.3
20181015154326 54 147 13.0 30.0 0.00 0.00 0.00 29 1026.3
20181015153825 54 117 19.0 30.0 0.00 0.00 0.00 28 1026.1
20181015153326 54 133 18.0 27.0 0.00 0.00 0.00 29 1026.2
20181015152826 54 131 17.0 24.0 0.00 0.00 0.00 29 1026.1
20181015152325 54 156 17.0 26.0 0.00 0.00 0.00 29 1026.1
20181015151824 54 140 14.0 26.0 0.00 0.00 0.00 28 1026.1
20181015151324 54 144 16.0 26.0 0.00 0.00 0.00 1 1026.0
20181015150824 54 154 21.0 26.0 0.00 0.00 0.00 28 1026.0
20181015150324 54 145 19.0 25.0 0.00 0.00 0.00 29 1026.0
20181015145824 54 145 19.0 25.0 0.00 0.00 0.00 28 1026.0
20181015145324 54 123 18.0 25.0 0.00 0.00 0.00 28 1025.9
20181015144824 53 134 20.0 25.0 0.00 0.00 0.00 29 1025.9
20181015144325 53 145 19.0 23.0 0.00 0.00 0.00 29 1025.9
20181015143823 53 135 18.0 25.0 0.00 0.00 0.00 28 1025.9
20181015143324 53 141 17.0 25.0 0.00 0.00 0.00 28 1025.9
20181015142825 53 151 18.0 25.0 0.00 0.00 0.00 29 1025.9
20181015142324 53 131 19.0 24.0 0.00 0.00 0.00 28 1025.9
20181015141824 53 145 19.0 23.0 0.00 0.00 0.00 28 1025.7
20181015141324 53 154 20.0 23.0 0.00 0.00 0.00 29 1025.7
20181015140824 53 140 15.0 23.0 0.00 0.00 0.00 29 1025.7
20181015140324 53 135 15.0 22.0 0.00 0.00 0.00 29 1025.7
20181015135824 53 158 16.0 23.0 0.00 0.00 0.00 29 1025.7
20181015135323 53 147 17.0 23.0 0.00 0.00 0.00 29 1025.7
20181015134825 53 142 14.0 23.0 0.00 0.00 0.00 29 1025.6
20181015134324 53 144 14.0 25.0 0.00 0.00 0.00 29 1025.6
20181015133824 53 154 15.0 25.0 0.00 0.00 0.00 29 1025.5
20181015133324 53 155 18.0 25.0 0.00 0.00 0.00 1 1025.5
20181015132823 53 149 17.0 22.0 0.00 0.00 0.00 29 1025.5
20181015132324 54 142 16.0 28.0 0.00 0.00 0.00 1 1025.5
20181015131824 54 141 17.0 28.0 0.00 0.00 0.00 28 1025.5
20181015131324 54 133 18.0 28.0 0.00 0.00 0.00 28 1025.4
20181015130823 54 152 18.0 24.0 0.00 0.00 0.00 28 1025.4
20181015130323 54 135 16.0 24.0 0.00 0.00 0.00 27 1025.4
20181015125823 54 138 17.0 28.0 0.00 0.00 0.00 27 1025.3
20181015125323 54 158 19.0 28.0 0.00 0.00 0.00 27 1025.2
20181015124824 54 158 16.0 28.0 0.00 0.00 0.00 27 1025.2
20181015124325 54 133 16.0 30.0 0.00 0.00 0.00 27 1025.3
20181015123823 54 134 17.0 30.0 0.00 0.00 0.00 1 1025.2
20181015123323 54 135 16.0 30.0 0.00 0.00 0.00 28 1025.2
20181015122824 54 130 17.0 29.0 0.00 0.00 0.00 28 1025.2
20181015122323 54 151 21.0 28.0 0.00 0.00 0.00 28 1025.2
20181015121824 53 131 18.0 26.0 0.00 0.00 0.00 30 1025.2
20181015121323 53 130 18.0 26.0 0.00 0.00 0.00 29 1025.2
20181015120823 53 163 19.0 24.0 0.00 0.00 0.00 29 1025.2
20181015120323 53 149 20.0 27.0 0.00 0.00 0.00 29 1025.3
20181015115823 53 116 16.0 27.0 0.00 0.00 0.00 29 1025.3
20181015115323 53 137 17.0 27.0 0.00 0.00 0.00 1 1025.4
20181015114823 53 137 18.0 24.0 0.00 0.00 0.00 29 1025.3
20181015114324 53 144 18.0 24.0 0.00 0.00 0.00 29 1025.3
20181015113823 53 127 15.0 33.0 0.00 0.00 0.00 30 1025.4
20181015113323 53 148 15.0 33.0 0.00 0.00 0.00 30 1025.4
20181015112823 53 155 18.0 33.0 0.00 0.00 0.00 30 1025.4
20181015112323 53 133 20.0 28.0 0.00 0.00 0.00 30 1025.4
20181015111824 53 168 17.0 25.0 0.00 0.00 0.00 30 1025.4
20181015111323 53 121 18.0 30.0 0.00 0.00 0.00 30 1025.3
20181015110823 53 134 20.0 30.0 0.00 0.00 0.00 30 1025.2
20181015110323 53 140 17.0 30.0 0.00 0.00 0.00 30 1025.2
20181015105823 53 134 19.0 26.0 0.00 0.00 0.00 30 1025.3
20181015105324 53 161 14.0 30.0 0.00 0.00 0.00 31 1025.3
20181015104823 53 172 17.0 30.0 0.00 0.00 0.00 31 1025.3
20181015104323 53 141 19.0 30.0 0.00 0.00 0.00 31 1025.3
20181015103823 53 148 18.0 27.0 0.00 0.00 0.00 31 1025.4
20181015103323 52 133 17.0 26.0 0.00 0.00 0.00 31 1025.4
20181015102823 52 140 16.0 28.0 0.00 0.00 0.00 32 1025.4
20181015102324 52 126 16.0 28.0 0.00 0.00 0.00 32 1025.4
20181015101823 52 148 17.0 28.0 0.00 0.00 0.00 32 1025.4
20181015101323 52 152 20.0 26.0 0.00 0.00 0.00 32 1025.3
20181015100823 52 142 17.0 26.0 0.00 0.00 0.00 32 1025.4
20181015100324 52 147 18.0 26.0 0.00 0.00 0.00 33 1025.4
20181015095823 52 151 19.0 26.0 0.00 0.00 0.00 32 1025.4
20181015095323 52 169 17.0 23.0 0.00 0.00 0.00 32 1025.4
20181015094823 52 123 12.0 23.0 0.00 0.00 0.00 32 1025.5
20181015094324 52 144 17.0 26.0 0.00 0.00 0.00 32 1025.4
20181015093823 52 159 15.0 26.0 0.00 0.00 0.00 32 1025.5
20181015093324 52 142 17.0 26.0 0.00 0.00 0.00 32 1025.5
20181015092824 52 156 15.0 28.0 0.00 0.00 0.00 33 1025.5
20181015092323 52 121 16.0 28.0 0.00 0.00 0.00 33 1025.4
20181015091823 52 114 18.0 28.0 0.00 0.00 0.00 33 1025.4
20181015091324 52 145 16.0 28.0 0.00 0.00 0.00 34 1025.3
20181015090823 52 127 18.0 28.0 0.00 0.00 0.00 34 1025.3
20181015090323 52 135 18.0 28.0 0.00 0.00 0.00 33 1025.3
20181015085824 52 156 16.0 28.0 0.00 0.00 0.00 33 1025.3
20181015085323 52 162 16.0 28.0 0.00 0.00 0.00 34 1025.2
20181015084823 52 147 15.0 25.0 0.00 0.00 0.00 34 1025.2
20181015084324 52 120 17.0 34.0 0.00 0.00 0.00 34 1025.2
20181015083823 52 177 19.0 34.0 0.00 0.00 0.00 34 1025.1
20181015083323 52 156 15.0 34.0 0.00 0.00 0.00 34 1025.2
20181015082823 52 137 16.0 29.0 0.00 0.00 0.00 34 1025.1
20181015082323 52 134 18.0 36.0 0.00 0.00 0.00 34 1025.1
20181015081824 52 142 14.0 36.0 0.00 0.00 0.00 35 1025.0
20181015081325 52 145 17.0 36.0 0.00 0.00 0.00 34 1025.0
20181015080823 52 145 19.0 32.0 0.00 0.00 0.00 35 1025.0
20181015080323 52 134 17.0 30.0 0.00 0.00 0.00 35 1025.0
20181015075823 52 109 18.0 31.0 0.00 0.00 0.00 35 1025.0
20181015075324 52 113 18.0 31.0 0.00 0.00 0.00 35 1025.1
20181015074823 52 124 20.0 31.0 0.00 0.00 0.00 35 1025.1
20181015074323 52 120 20.0 30.0 0.00 0.00 0.00 35 1025.1
20181015073823 52 138 21.0 33.0 0.00 0.00 0.00 35 1025.1
20181015073323 52 117 21.0 33.0 0.00 0.00 0.00 35 1025.1
20181015072823 52 152 20.0 33.0 0.00 0.00 0.00 35 1025.1
20181015072323 52 128 22.0 32.0 0.00 0.00 0.00 35 1025.1
20181015071823 52 127 20.0 31.0 0.00 0.00 0.00 35 1025.1
20181015071323 52 140 18.0 31.0 0.00 0.00 0.00 35 1025.1
20181015070823 52 127 18.0 30.0 0.00 0.00 0.00 36 1025.2
20181015070323 52 144 17.0 30.0 0.00 0.00 0.00 35 1025.2
20181015065823 52 128 17.0 32.0 0.00 0.00 0.00 36 1025.2
20181015065323 52 134 22.0 32.0 0.00 0.00 0.00 35 1025.2
20181015064823 52 133 17.0 32.0 0.00 0.00 0.00 36 1025.2
20181015064323 52 145 24.0 31.0 0.00 0.00 0.00 35 1025.4
20181015063823 52 126 21.0 32.0 0.00 0.00 0.00 36 1025.4
20181015063323 52 127 21.0 32.0 0.00 0.00 0.00 37 1025.4
20181015062824 52 137 23.0 32.0 0.00 0.00 0.00 37 1025.3
20181015062323 52 137 19.0 31.0 0.00 0.00 0.00 37 1025.3
20181015061823 51 138 20.0 31.0 0.00 0.00 0.00 37 1025.4
20181015061323 51 116 21.0 31.0 0.00 0.00 0.00 37 1025.3
20181015060823 51 140 21.0 29.0 0.00 0.00 0.00 37 1025.3
20181015060323 51 151 20.0 32.0 0.00 0.00 0.00 38 1025.4
20181015055826 51 137 24.0 32.0 0.00 0.00 0.00 38 1025.3
20181015055323 51 140 18.0 32.0 0.00 0.00 0.00 39 1025.4
20181015054823 51 145 20.0 31.0 0.00 0.00 0.00 38 1025.3
20181015054323 51 131 18.0 31.0 0.00 0.00 0.00 39 1025.3
20181015053823 51 127 22.0 31.0 0.00 0.00 0.00 39 1025.3
20181015053323 51 142 19.0 35.0 0.00 0.00 0.00 39 1025.3
20181015052823 51 140 23.0 35.0 0.00 0.00 0.00 40 1025.2
20181015052323 50 156 22.0 35.0 0.00 0.00 0.00 40 1025.2
20181015051823 50 134 20.0 33.0 0.00 0.00 0.00 41 1025.3
20181015051323 50 141 19.0 33.0 0.00 0.00 0.00 41 1025.3
20181015050824 50 138 22.0 35.0 0.00 0.00 0.00 41 1025.3
20181015050323 50 141 16.0 35.0 0.00 0.00 0.00 41 1025.2
20181015045823 50 138 25.0 35.0 0.00 0.00 0.00 41 1025.1
20181015045323 50 135 21.0 34.0 0.00 0.00 0.00 42 1025.1
20181015044823 50 130 24.0 35.0 0.00 0.00 0.00 42 1025.1
20181015044322 50 144 18.0 35.0 0.00 0.00 0.00 42 1025.1
20181015043823 50 133 24.0 35.0 0.00 0.00 0.00 43 1025.1
20181015043323 50 127 23.0 38.0 0.00 0.00 0.00 43 1025.1
20181015042823 50 142 24.0 38.0 0.00 0.00 0.00 43 1025.1
20181015042324 50 148 25.0 38.0 0.00 0.00 0.00 43 1024.8
20181015041824 50 130 26.0 32.0 0.00 0.00 0.00 44 1025.0
20181015041322 50 127 20.0 32.0 0.00 0.00 0.00 44 1025.1
20181015040822 50 131 21.0 36.0 0.00 0.00 0.00 44 1025.1
20181015040322 50 137 20.0 36.0 0.00 0.00 0.00 45 1025.2
20181015035825 50 123 19.0 36.0 0.00 0.00 0.00 45 1025.2
20181015035322 50 135 22.0 36.0 0.00 0.00 0.00 45 1025.1
20181015034822 50 131 22.0 36.0 0.00 0.00 0.00 45 1025.1
20181015034324 50 120 22.0 36.0 0.00 0.00 0.00 45 1025.1
20181015033822 50 142 23.0 37.0 0.00 0.00 0.00 46 1025.1
20181015033322 50 130 18.0 37.0 0.00 0.00 0.00 46 1025.1
20181015032822 50 141 20.0 37.0 0.00 0.00 0.00 46 1025.0
20181015032322 50 147 22.0 37.0 0.00 0.00 0.00 46 1025.1
20181015031822 50 113 24.0 37.0 0.00 0.00 0.00 47 1025.1
20181015031322 50 116 27.0 36.0 0.00 0.00 0.00 47 1025.0
20181015030824 50 124 26.0 40.0 0.00 0.00 0.00 47 1025.0
20181015030323 50 134 20.0 40.0 0.00 0.00 0.00 47 1025.0
20181015025822 50 99 21.0 40.0 0.00 0.00 0.00 47 1025.0
20181015025323 50 130 25.0 39.0 0.00 0.00 0.00 46 1024.8
20181015024822 50 110 21.0 39.0 0.00 0.00 0.00 47 1024.8
20181015024322 50 123 25.0 39.0 0.00 0.00 0.00 47 1024.8
20181015023322 50 106 24.0 38.0 0.00 0.00 0.00 47 1024.8
20181015022823 50 124 24.0 39.0 0.00 0.00 0.00 47 1024.8
20181015022322 50 138 24.0 39.0 0.00 0.00 0.00 47 1024.8
20181015021822 50 126 24.0 39.0 0.00 0.00 0.00 47 1025.0
20181015021326 50 131 24.0 40.0 0.00 0.00 0.00 48 1024.8
20181015020822 50 128 26.0 40.0 0.00 0.00 0.00 48 1024.7
20181015020322 50 126 25.0 40.0 0.00 0.00 0.00 48 1024.7
20181015015822 50 147 22.0 39.0 0.00 0.00 0.00 48 1024.7
20181015015322 50 128 26.0 37.0 0.00 0.00 0.00 47 1024.7
20181015014822 50 124 26.0 37.0 0.00 0.00 0.00 47 1024.7
20181015014323 51 145 22.0 37.0 0.00 0.00 0.00 6 1024.7
20181015013822 51 137 27.0 43.0 0.00 0.00 0.00 46 1024.6
20181015013322 51 149 24.0 43.0 0.00 0.00 0.00 6 1024.6
20181015012822 51 137 26.0 43.0 0.00 0.00 0.00 7 1024.6
20181015012322 51 133 30.0 40.0 0.00 0.00 0.00 7 1024.5
20181015011822 51 138 27.0 38.0 0.00 0.00 0.00 48 1024.4
20181015011322 51 135 24.0 38.0 0.00 0.00 0.00 47 1024.4